Location: Arthurs Seat
(13.1500°N, 59.6000°W)
Time: 20:39:56
(UTC+00:00)

Cosmos 990 Rocket - Pass Details

Date: 25 August 2019
Orbit: 748 x 768 km, 74.0° (Epoch: 15 September)

Event Time Altitude Azimuth Distance (km) Brightness Sun altitude
Rises 23:13:07 0° 186° (S) 3,223 7.1 -14.9°
Reaches altitude 10° 23:15:31 10° 183° (S) 2,296 6.4 -15.4°
Maximum altitude 23:20:41 65° 102° (ESE) 833 3.9 -16.6°
Drops below altitude 10° 23:25:49 10° 21° (NNE) 2,287 6.4 -17.8°
Sets 23:28:11 0° 18° (NNE) 3,210 7.2 -18.4°
